Sanford, FL

11:33 PM EDT on September 27, 2016 (GMT -0400)
Orlando Sanford

Weather History for KSFB - February, 2014

Change the Weather History Date:

Thursday, February 27, 2014

  Actual Average Record
Temperature  
Mean Temperature 56 °F -  
Max Temperature 62 °F 72 °F 89 °F (1962)
Min Temperature 50 °F 47 °F 30 °F (1989)
Degree Days  
Heating Degree Days 9    
Growing Degree Days 6 (Base 50)    
Moisture  
Dew Point 50 °F    
Average Humidity 84    
Maximum Humidity 100    
Minimum Humidity 51    
Precipitation  
Precipitation 0.06 in - - ()
Sea Level Pressure  
Sea Level Pressure 29.90 in    
Wind  
Wind Speed 7 mph (NNW)    
Max Wind Speed 14 mph    
Max Gust Speed 20 mph    
Visibility 9 miles    
Events Rain    
Averages and records for this station are not official NWS values.
T = Trace of Precipitation, MM = Missing Value Source: NWS Daily Summary

Daily Weather History Graph

Daily Weather History Graph

Search for Another Location

Airport or City:

Trip Planner

Search our weather history database for the weather conditions in past years. The results will help you decide how hot, cold, wet, or windy it might be!

Date:

Astronomy

Feb. 27, 2014 Rise Set
Actual Time 6:52 AM EST 6:23 PM EST
Civil Twilight 6:28 AM EST 6:47 PM EST
Nautical Twilight 6:00 AM EST 7:14 PM EST
Astronomical Twilight 5:33 AM EST 7:42 PM EST
Moon 5:17 AM EST (2/27) 4:51 PM EST (2/27)
Length of Visible Light 12h 18m
Length of Day
11h 31m
Waning Crescent, 4% of the Moon is Illuminated
Feb 27
Waning Crescent
Mar 1
New
Mar 8
First Quarter
Mar 16
Full
Mar 23
Last Quarter

Hourly Weather History & Observations

Time (EST) Temp. Dew Point Humidity Pressure Visibility Wind Dir Wind Speed Gust Speed Precip Events Conditions
12:13 AM 62.1 °F 62.1 °F 100% 29.80 in 5.0 mi NNW 4.6 mph - N/A   Overcast
12:53 AM 62.1 °F 61.0 °F 96% 29.80 in 4.0 mi WNW 5.8 mph - N/A   Overcast
1:53 AM 61.0 °F 61.0 °F 100% 29.81 in 7.0 mi WNW 6.9 mph - N/A   Overcast
2:53 AM 62.1 °F 61.0 °F 96% 29.81 in 9.0 mi NNW 9.2 mph - N/A   Overcast
3:29 AM 57.9 °F 57.0 °F 97% 29.83 in 9.0 mi North 9.2 mph 19.6 mph 0.01 in Rain Light Rain
3:53 AM 57.0 °F 55.9 °F 96% 29.84 in 10.0 mi NNW 11.5 mph - 0.01 in   Overcast
4:10 AM 55.9 °F 55.9 °F 100% 29.84 in 10.0 mi NNW 12.7 mph - N/A   Overcast
4:38 AM 55.0 °F 54.0 °F 96% 29.86 in 10.0 mi NNW 13.8 mph - N/A   Overcast
4:53 AM 55.0 °F 54.0 °F 96% 29.86 in 10.0 mi NNW 11.5 mph - 0.00 in Rain Light Rain
5:53 AM 55.0 °F 54.0 °F 96% 29.86 in 10.0 mi NNE 5.8 mph - 0.03 in Rain Light Rain
6:42 AM 54.0 °F 53.1 °F 97% 29.86 in 10.0 mi North 5.8 mph - 0.01 in   Overcast
6:53 AM 54.0 °F 53.1 °F 97% 29.86 in 10.0 mi NE 4.6 mph - 0.01 in   Overcast
7:06 AM 53.1 °F 53.1 °F 100% 29.85 in 10.0 mi ENE 6.9 mph - N/A   Overcast
7:53 AM 54.0 °F 53.1 °F 97% 29.90 in 10.0 mi NW 9.2 mph - N/A   Overcast
8:53 AM 52.0 °F 51.1 °F 97% 29.92 in 10.0 mi North 11.5 mph - N/A   Overcast
9:53 AM 51.1 °F 50.0 °F 96% 29.94 in 7.0 mi NNW 6.9 mph - 0.00 in   Overcast
10:05 AM 51.1 °F 50.0 °F 96% 29.95 in 6.0 mi NNW 9.2 mph - N/A   Overcast
10:23 AM 50.0 °F 48.9 °F 96% 29.94 in 6.0 mi North 10.4 mph - 0.01 in Rain Light Rain
10:53 AM 51.1 °F 48.9 °F 92% 29.95 in 10.0 mi NNW 9.2 mph - 0.01 in   Overcast
11:10 AM 51.1 °F 48.0 °F 89% 29.95 in 10.0 mi NNW 6.9 mph - N/A   Overcast
11:53 AM 52.0 °F 46.9 °F 83% 29.95 in 10.0 mi NW 8.1 mph - N/A   Overcast
12:13 PM 54.0 °F 46.9 °F 77% 29.95 in 10.0 mi WNW 6.9 mph - N/A   Overcast
12:53 PM 55.0 °F 46.0 °F 72% 29.94 in 10.0 mi Variable 6.9 mph - N/A   Scattered Clouds
1:53 PM 55.9 °F 45.0 °F 67% 29.91 in 10.0 mi North 5.8 mph - N/A   Partly Cloudy
2:53 PM 57.9 °F 44.1 °F 60% 29.90 in 10.0 mi NNW 5.8 mph - N/A   Clear
3:53 PM 59.0 °F 41.0 °F 51% 29.91 in 10.0 mi Calm Calm - N/A   Clear
4:53 PM 57.9 °F 39.9 °F 51% 29.91 in 10.0 mi NNW 5.8 mph - N/A   Clear
5:53 PM 57.0 °F 42.1 °F 57% 29.92 in 10.0 mi NNE 4.6 mph - N/A   Clear
6:53 PM 55.9 °F 43.0 °F 62% 29.95 in 10.0 mi Calm Calm - N/A   Clear
7:53 PM 55.9 °F 43.0 °F 62% 29.97 in 10.0 mi Calm Calm - N/A   Clear
8:53 PM 55.0 °F 45.0 °F 69% 29.97 in 10.0 mi North 3.5 mph - N/A   Partly Cloudy
9:53 PM 55.0 °F 46.0 °F 72% 29.96 in 10.0 mi NE 5.8 mph - N/A   Overcast
10:53 PM 54.0 °F 45.0 °F 72% 29.97 in 10.0 mi North 5.8 mph - N/A   Scattered Clouds
11:53 PM 54.0 °F 45.0 °F 72% 29.96 in 10.0 mi NNE 5.8 mph - N/A   Clear